Location: Notre Dame Regional High School Observatory
(37.3056°N, 89.6097°W)
Time: 08:36:33
(UTC-05:00)

Okean-O - Visible Passes

Search period start: 25 March 2017 00:00
Search period end: 04 April 2017 00:00
Orbit: 639 x 642 km, 98.2° (Epoch: 23 March)

Date Brightness Start Highest point End Pass type
(mag) Time Alt. Az. Time Alt. Az. Time Alt. Az.
25 Mar 5.2 04:40:35 10° NE 04:43:44 19° E 04:46:51 10° SE visible
25 Mar 3.3 06:16:15 10° N 06:20:16 34° WNW 06:24:16 10° SW visible
26 Mar 4.3 05:03:23 10° NNE 05:07:25 34° E 05:11:27 10° SSE visible
27 Mar 3.0 05:26:39 10° NNE 05:31:04 64° E 05:35:26 10° S visible
28 Mar 2.6 05:50:12 10° N 05:54:37 69° WNW 05:59:01 10° SSW visible
29 Mar 5.3 04:38:31 10° NE 04:41:31 18° E 04:44:30 10° SE visible
29 Mar 3.2 06:14:01 10° N 06:18:05 37° WNW 06:22:09 10° SW visible
30 Mar 4.4 05:01:15 10° NE 05:05:13 32° E 05:09:11 10° SSE visible
31 Mar 3.2 05:24:28 10° NNE 05:28:52 59° E 05:33:14 10° S visible
01 Apr 2.6 05:48:00 10° N 05:52:26 74° WNW 05:56:50 10° SSW visible
02 Apr 5.4 04:36:29 10° NE 04:39:18 16° E 04:42:07 10° SE visible
02 Apr 3.1 06:11:47 10° N 06:15:55 39° WNW 06:20:02 10° SW visible
03 Apr 4.5 04:59:08 10° NE 05:03:02 30° E 05:06:54 10° SSE visible
